Location: ????????
(55.3975°N, 38.2844°E)
Time: 15:26:44
(UTC+00:00)

ACS3 Solar Sail - Pass Details

Date: 15 August 2024
Orbit: 980 x 1030 km, 97.4° (Epoch: 08 September)

Event Time Altitude Azimuth Distance (km) Brightness Sun altitude
Rises 17:22:12 0° 151° (SSE) 3,737 4.3 -3.5°
Reaches altitude 10° 17:24:41 10° 149° (SSE) 2,799 3.7 -3.8°
Maximum altitude 17:30:55 65° 69° (ENE) 1,124 2.0 -4.6°
Drops below altitude 10° 17:37:18 10° 350° (N) 2,853 5.0 -5.3°
Sets 17:39:51 0° 347° (NNW) 3,814 5.7 -5.6°
